Погода в Шугозере

Россия / Санкт-Петербург и Ленинградская область     59°55′42″N   34°12′24″E
темп.,
°C
ветер,
м/с
пор.,
м/с
влажн.,
%
обл.,
%
осадки,
мм/ч
давл.,
гПа
погр.,
м
6 августа, пт
пт600:00+12вюв1496100 0.5 1016135
03:00+12св3998100 3.1 1015440
06:00+11всв51296100 1.4 1014528
09:00+11всв51195100 1.8 1014908
12:00+12всв41094100 0.2 1015757
15:00+12всв51194100 0.4 1014574
18:00+13всв4108985 0.0 1014533
21:00+13всв41091100 0.0 1014468
7 августа, сб
сб700:00+13всв41087100 0.0 1014572
03:00+13всв41193100 0.0 1013508
06:00+14всв41292100 0.0 1012574
09:00+14в41290100 0.0 1012545
12:00+14в51597100 3.4 1011810
15:00+15в61497100 7.0 1010845
18:00+15вюв61497100 5.0 1010952
21:00+15вюв51298100 5.1 1010580
8 августа, вс
вс800:00+15вюв41298100 0.0 1010512
03:00+15вюв31099100 0.1 1010432
06:00+15вюв3899100 0.1 1009329
09:00+17юз249219 0.3 1011441
12:00+22юз345767 0.0 10111401
15:00+21юз3464100 0.1 1012996
18:00+20зюз237428 0.3 1013495
21:00+15юз24973 0.6 101469
9 августа, пн
пн900:00+14ююз229799 0.0 101526
03:00+13ю1198100 0.0 101616
06:00+13ююв1296100 0.0 101661
09:00+19ююв237614 0.0 1016384
12:00+24ююв34519 0.0 10151366
15:00+26ю4647100 0.0 10151753
18:00+21ююв237314 0.1 101572
21:00+18ююз2493100 0.4 101687
10 августа, вт
вт1000:00+16ююз2698100 0.0 1017139
03:00+15ююз2699100 0.0 1018146
06:00+15юз259898 0.0 1018144
09:00+20юз23740 0.0 1019529
12:00+24юз234830 0.0 10181474
15:00+26юз134066 0.0 10172342
18:00+22ссз246494 0.0 1017145
21:00+18ссв237257 0.0 101751